Time,TemperatureF,DewpointF,PressureIn,WindDirection,WindDirectionDegrees,WindSpeedMPH,WindSpeedGustMPH,Humidity,HourlyPrecipIn,Conditions,Clouds,dailyrainin,SolarRadiationWatts/m^2,SoftwareType,DateUTC
2013-03-09 00:00:00,25.4,18.3,30.07,SSW,197,7.0,17.0,74,0.00,,,0.00,0,Wunderground v.1.15,2013-03-09 07:00:00,
2013-03-09 00:06:00,24.5,18.0,30.07,SSW,197,7.0,17.0,76,0.00,,,0.00,0,Wunderground v.1.15,2013-03-09 07:06:00,
2013-03-09 00:12:00,24.3,18.4,30.08,SSW,197,6.0,17.0,78,0.00,,,0.00,0,Wunderground v.1.15,2013-03-09 07:12:00,
2013-03-09 00:18:00,24.5,18.3,30.08,SSW,197,5.0,17.0,77,0.00,,,0.00,0,Wunderground v.1.15,2013-03-09 07:18:00,
2013-03-09 00:24:00,24.8,18.6,30.07,SSW,196,5.0,17.0,77,0.00,,,0.00,0,Wunderground v.1.15,2013-03-09 07:24:00,
2013-03-09 00:30:00,25.3,17.9,30.07,SSW,196,4.0,17.0,73,0.00,,,0.00,0,Wunderground v.1.15,2013-03-09 07:30:00,
2013-03-09 00:36:00,25.3,18.8,30.08,SSW,197,4.0,17.0,76,0.00,,,0.00,0,Wunderground v.1.15,2013-03-09 07:36:00,
2013-03-09 00:42:00,25.3,18.5,30.08,SSW,197,4.0,17.0,75,0.00,,,0.00,0,Wunderground v.1.15,2013-03-09 07:42:00,
2013-03-09 00:48:00,24.7,17.3,30.08,SSW,197,6.0,17.0,73,0.00,,,0.00,0,Wunderground v.1.15,2013-03-09 07:48:00,
2013-03-09 00:54:00,24.1,17.6,30.08,SSW,195,6.0,17.0,76,0.00,,,0.00,0,Wunderground v.1.15,2013-03-09 07:54:00,
2013-03-09 01:00:00,23.5,17.6,30.08,SSW,194,6.0,17.0,78,0.00,,,0.00,0,Wunderground v.1.15,2013-03-09 08:00:00,
2013-03-09 01:06:00,23.9,17.4,30.09,South,183,7.0,17.0,76,0.00,,,0.00,0,Wunderground v.1.15,2013-03-09 08:06:00,
2013-03-09 01:12:00,23.9,17.7,30.09,SSW,194,6.0,17.0,77,0.00,,,0.00,0,Wunderground v.1.15,2013-03-09 08:12:00,
2013-03-09 01:18:00,23.6,17.7,30.09,South,176,5.0,17.0,78,0.00,,,0.00,0,Wunderground v.1.15,2013-03-09 08:18:00,
2013-03-09 01:24:00,23.9,18.6,30.10,South,176,4.0,17.0,80,0.00,,,0.00,0,Wunderground v.1.15,2013-03-09 08:24:00,
2013-03-09 01:30:00,24.4,18.8,30.09,South,176,4.0,17.0,79,0.00,,,0.00,0,Wunderground v.1.15,2013-03-09 08:30:00,
2013-03-09 01:36:00,24.9,18.1,30.09,SSW,196,6.0,17.0,75,0.00,,,0.00,0,Wunderground v.1.15,2013-03-09 08:36:00,
2013-03-09 01:42:00,25.9,18.4,30.10,South,172,6.0,17.0,73,0.00,,,0.00,0,Wunderground v.1.15,2013-03-09 08:42:00,
2013-03-09 01:48:00,25.1,18.3,30.10,South,191,5.0,17.0,75,0.00,,,0.00,0,Wunderground v.1.15,2013-03-09 08:48:00,
2013-03-09 01:54:00,24.4,17.9,30.10,South,191,4.0,17.0,76,0.00,,,0.00,0,Wunderground v.1.15,2013-03-09 08:54:00,
2013-03-09 02:00:00,24.5,18.0,30.10,SSE,163,6.0,9.0,76,0.00,,,0.00,0,Wunderground v.1.15,2013-03-09 09:00:00,
2013-03-09 02:06:00,24.2,17.7,30.10,South,183,6.0,9.0,76,0.00,,,0.00,0,Wunderground v.1.15,2013-03-09 09:06:00,
2013-03-09 02:12:00,23.9,17.1,30.11,SSW,194,6.0,9.0,75,0.00,,,0.00,0,Wunderground v.1.15,2013-03-09 09:12:00,
2013-03-09 02:18:00,23.4,16.6,30.10,South,183,7.0,9.0,75,0.00,,,0.00,0,Wunderground v.1.15,2013-03-09 09:18:00,
2013-03-09 02:26:00,22.4,16.3,30.10,South,189,8.0,9.0,77,0.00,,,0.00,0,Wunderground v.1.15,2013-03-09 09:26:00,
2013-03-09 02:32:00,22.9,17.1,30.11,South,188,7.0,9.0,78,0.00,,,0.00,0,Wunderground v.1.15,2013-03-09 09:32:00,
2013-03-09 02:38:00,23.5,17.3,30.11,South,172,6.0,9.0,77,0.00,,,0.00,0,Wunderground v.1.15,2013-03-09 09:38:00,
2013-03-09 02:44:00,24.6,17.8,30.11,South,170,5.0,9.0,75,0.00,,,0.00,0,Wunderground v.1.15,2013-03-09 09:44:00,
2013-03-09 02:50:00,24.3,17.5,30.11,South,177,4.0,9.0,75,0.00,,,0.00,0,Wunderground v.1.15,2013-03-09 09:50:00,
2013-03-09 02:56:00,24.0,16.6,30.11,South,177,4.0,9.0,73,0.00,,,0.00,0,Wunderground v.1.15,2013-03-09 09:56:00,
2013-03-09 03:02:00,24.1,17.0,30.11,South,177,4.0,9.0,74,0.00,,,0.00,0,Wunderground v.1.15,2013-03-09 10:02:00,
2013-03-09 03:08:00,23.7,16.9,30.11,South,185,4.0,9.0,75,0.00,,,0.00,0,Wunderground v.1.15,2013-03-09 10:08:00,
2013-03-09 03:14:00,23.6,16.8,30.11,South,183,5.0,9.0,75,0.00,,,0.00,0,Wunderground v.1.15,2013-03-09 10:14:00,
2013-03-09 03:20:00,23.5,16.7,30.12,South,174,6.0,6.0,75,0.00,,,0.00,0,Wunderground v.1.15,2013-03-09 10:20:00,
2013-03-09 03:26:00,24.0,17.2,30.12,South,189,5.0,9.0,75,0.00,,,0.00,0,Wunderground v.1.15,2013-03-09 10:26:00,
2013-03-09 03:32:00,23.9,17.1,30.12,South,189,1.0,9.0,75,0.00,,,0.00,0,Wunderground v.1.15,2013-03-09 10:32:00,
2013-03-09 03:38:00,23.7,17.2,30.12,WSW,242,1.0,9.0,76,0.00,,,0.00,0,Wunderground v.1.15,2013-03-09 10:38:00,
2013-03-09 03:44:00,23.1,16.0,30.12,WSW,242,3.0,9.0,74,0.00,,,0.00,0,Wunderground v.1.15,2013-03-09 10:44:00,
2013-03-09 03:50:00,22.9,16.5,30.12,WSW,242,3.0,3.0,76,0.00,,,0.00,0,Wunderground v.1.15,2013-03-09 10:50:00,
2013-03-09 03:56:00,22.5,16.1,30.12,WSW,242,2.0,9.0,76,0.00,,,0.00,0,Wunderground v.1.15,2013-03-09 10:56:00,
2013-03-09 04:02:00,22.5,16.1,30.13,WSW,242,2.0,9.0,76,0.00,,,0.00,0,Wunderground v.1.15,2013-03-09 11:02:00,
2013-03-09 04:08:00,22.3,16.2,30.13,WSW,242,2.0,9.0,77,0.00,,,0.00,0,Wunderground v.1.15,2013-03-09 11:08:00,
2013-03-09 04:14:00,22.4,16.3,30.13,WSW,242,1.0,9.0,77,0.00,,,0.00,0,Wunderground v.1.15,2013-03-09 11:14:00,
2013-03-09 04:20:00,22.5,16.7,30.13,WSW,242,1.0,9.0,78,0.00,,,0.00,0,Wunderground v.1.15,2013-03-09 11:20:00,
2013-03-09 04:26:00,22.6,16.8,30.14,WSW,242,1.0,9.0,78,0.00,,,0.00,0,Wunderground v.1.15,2013-03-09 11:26:00,
2013-03-09 04:32:00,23.0,17.2,30.14,SSW,193,3.0,9.0,78,0.00,,,0.00,0,Wunderground v.1.15,2013-03-09 11:32:00,
2013-03-09 04:38:00,22.4,16.6,30.14,SSW,204,5.0,9.0,78,0.00,,,0.00,0,Wunderground v.1.15,2013-03-09 11:38:00,
2013-03-09 04:44:00,22.0,16.8,30.14,SSW,204,3.0,9.0,80,0.00,,,0.00,0,Wunderground v.1.15,2013-03-09 11:44:00,
2013-03-09 04:50:00,21.8,16.6,30.15,SSW,204,1.0,9.0,80,0.00,,,0.00,0,Wunderground v.1.15,2013-03-09 11:50:00,
2013-03-09 04:56:00,20.9,15.7,30.15,SSW,204,2.0,9.0,80,0.00,,,0.00,0,Wunderground v.1.15,2013-03-09 11:56:00,
2013-03-09 05:02:00,20.5,15.6,30.15,SSW,204,4.0,9.0,81,0.00,,,0.00,0,Wunderground v.1.15,2013-03-09 12:02:00,
2013-03-09 05:08:00,20.4,15.8,30.15,ESE,123,3.0,9.0,82,0.00,,,0.00,0,Wunderground v.1.15,2013-03-09 12:08:00,
2013-03-09 05:14:00,20.5,16.4,30.16,NE,37,3.0,9.0,84,0.00,,,0.00,0,Wunderground v.1.15,2013-03-09 12:14:00,
2013-03-09 05:20:00,20.6,16.8,30.16,NNE,27,4.0,4.0,85,0.00,,,0.00,0,Wunderground v.1.15,2013-03-09 12:20:00,
2013-03-09 05:26:00,20.7,16.9,30.16,NNE,27,2.0,9.0,85,0.00,,,0.00,0,Wunderground v.1.15,2013-03-09 12:26:00,
2013-03-09 05:32:00,20.7,16.9,30.16,NNE,27,1.0,9.0,85,0.00,,,0.00,0,Wunderground v.1.15,2013-03-09 12:32:00,
2013-03-09 05:38:00,20.5,16.4,30.17,NNE,27,1.0,9.0,84,0.00,,,0.00,0,Wunderground v.1.15,2013-03-09 12:38:00,
2013-03-09 05:44:00,20.5,16.2,30.16,NNE,27,2.0,9.0,83,0.00,,,0.00,0,Wunderground v.1.15,2013-03-09 12:44:00,
2013-03-09 05:50:00,20.4,16.3,30.17,ESE,112,3.0,9.0,84,0.00,,,0.00,0,Wunderground v.1.15,2013-03-09 12:50:00,
2013-03-09 05:56:00,20.0,15.9,30.17,ESE,123,4.0,9.0,84,0.00,,,0.00,0,Wunderground v.1.15,2013-03-09 12:56:00,
2013-03-09 06:02:00,20.0,16.5,30.17,ESE,123,4.0,7.0,86,0.00,,,0.00,0,Wunderground v.1.15,2013-03-09 13:02:00,
2013-03-09 06:08:00,20.3,16.8,30.17,ESE,123,3.0,7.0,86,0.00,,,0.00,0,Wunderground v.1.15,2013-03-09 13:08:00,
2013-03-09 06:14:00,20.3,16.8,30.18,ESE,123,1.0,7.0,86,0.00,,,0.00,0,Wunderground v.1.15,2013-03-09 13:14:00,
2013-03-09 06:20:00,20.4,16.6,30.18,ESE,123,0.0,7.0,85,0.00,,,0.00,0,Wunderground v.1.15,2013-03-09 13:20:00,
2013-03-09 06:26:00,20.2,16.4,30.19,ESE,123,1.0,7.0,85,0.00,,,0.00,0,Wunderground v.1.15,2013-03-09 13:26:00,
2013-03-09 06:32:00,20.2,16.1,30.19,ESE,123,1.0,7.0,84,0.00,,,0.00,0,Wunderground v.1.15,2013-03-09 13:32:00,
2013-03-09 06:38:00,20.2,16.4,30.19,ESE,123,1.0,7.0,85,0.00,,,0.00,0,Wunderground v.1.15,2013-03-09 13:38:00,
2013-03-09 06:44:00,20.2,16.1,30.19,ESE,123,2.0,7.0,84,0.00,,,0.00,0,Wunderground v.1.15,2013-03-09 13:44:00,
2013-03-09 06:50:00,20.3,16.5,30.19,ESE,123,2.0,7.0,85,0.00,,,0.00,0,Wunderground v.1.15,2013-03-09 13:50:00,
2013-03-09 06:56:00,20.1,16.3,30.20,ESE,123,2.0,7.0,85,0.00,,,0.00,0,Wunderground v.1.15,2013-03-09 13:56:00,
2013-03-09 07:02:00,19.9,16.1,30.20,ESE,123,2.0,7.0,85,0.00,,,0.00,5,Wunderground v.1.15,2013-03-09 14:02:00,
2013-03-09 07:08:00,19.7,15.9,30.20,ESE,123,2.0,7.0,85,0.00,,,0.00,7,Wunderground v.1.15,2013-03-09 14:08:00,
2013-03-09 07:14:00,19.6,15.8,30.20,ESE,123,2.0,7.0,85,0.00,,,0.00,12,Wunderground v.1.15,2013-03-09 14:14:00,
2013-03-09 07:20:00,19.7,16.2,30.21,ESE,123,2.0,7.0,86,0.00,,,0.00,12,Wunderground v.1.15,2013-03-09 14:20:00,
2013-03-09 07:26:00,19.9,16.1,30.21,SSE,157,4.0,7.0,85,0.00,,,0.00,18,Wunderground v.1.15,2013-03-09 14:26:00,
2013-03-09 07:32:00,20.1,16.3,30.21,SSE,157,5.0,7.0,85,0.00,,,0.00,23,Wunderground v.1.15,2013-03-09 14:32:00,
2013-03-09 07:38:00,20.4,16.9,30.21,SSE,157,4.0,7.0,86,0.00,,,0.00,51,Wunderground v.1.15,2013-03-09 14:38:00,
2013-03-09 07:44:00,20.9,16.8,30.22,SSE,157,4.0,7.0,84,0.00,,,0.00,35,Wunderground v.1.15,2013-03-09 14:44:00,
2013-03-09 07:50:00,21.4,17.0,30.22,SSE,160,5.0,5.0,83,0.00,,,0.00,47,Wunderground v.1.15,2013-03-09 14:50:00,
2013-03-09 07:56:00,21.6,17.5,30.22,SSE,160,4.0,7.0,84,0.00,,,0.00,44,Wunderground v.1.15,2013-03-09 14:56:00,
2013-03-09 08:02:00,21.8,17.4,30.22,SSE,161,3.0,7.0,83,0.00,,,0.00,56,Wunderground v.1.15,2013-03-09 15:02:00,
2013-03-09 08:08:00,22.0,17.9,30.23,SSE,167,3.0,7.0,84,0.00,,,0.00,74,Wunderground v.1.15,2013-03-09 15:08:00,
2013-03-09 08:14:00,22.4,18.0,30.23,South,189,5.0,7.0,83,0.00,,,0.00,69,Wunderground v.1.15,2013-03-09 15:14:00,
2013-03-09 08:20:00,22.9,18.8,30.23,South,189,4.0,4.0,84,0.00,,,0.00,69,Wunderground v.1.15,2013-03-09 15:20:00,
2013-03-09 08:26:00,23.2,19.4,30.24,South,189,2.0,7.0,85,0.00,,,0.00,72,Wunderground v.1.15,2013-03-09 15:26:00,
2013-03-09 08:32:00,23.4,19.3,30.24,South,189,3.0,7.0,84,0.00,,,0.00,77,Wunderground v.1.15,2013-03-09 15:32:00,
2013-03-09 08:38:00,23.8,19.7,30.25,South,189,3.0,7.0,84,0.00,,,0.00,81,Wunderground v.1.15,2013-03-09 15:38:00,
2013-03-09 08:44:00,24.1,20.0,30.25,West,275,0.0,7.0,84,0.00,,,0.00,91,Wunderground v.1.15,2013-03-09 15:44:00,
2013-03-09 08:52:00,24.4,20.3,30.25,NNW,347,3.0,7.0,84,0.00,,,0.00,111,Wunderground v.1.15,2013-03-09 15:52:00,
2013-03-09 08:58:00,24.3,19.9,30.26,NNW,347,3.0,7.0,83,0.00,,,0.00,125,Wunderground v.1.15,2013-03-09 15:58:00,
2013-03-09 09:04:00,24.5,20.4,30.26,North,355,2.0,7.0,84,0.00,,,0.00,178,Wunderground v.1.15,2013-03-09 16:04:00,
2013-03-09 09:10:00,24.9,21.0,30.25,North,356,2.0,7.0,85,0.00,,,0.00,188,Wunderground v.1.15,2013-03-09 16:10:00,
2013-03-09 09:16:00,25.6,21.4,30.25,North,356,2.0,7.0,84,0.00,,,0.00,165,Wunderground v.1.15,2013-03-09 16:16:00,
2013-03-09 09:22:00,26.4,20.8,30.26,North,5,3.0,7.0,79,0.00,,,0.00,113,Wunderground v.1.15,2013-03-09 16:22:00,
2013-03-09 09:28:00,27.0,21.1,30.26,NNW,328,3.0,7.0,78,0.00,,,0.00,153,Wunderground v.1.15,2013-03-09 16:28:00,
2013-03-09 09:34:00,26.9,20.3,30.26,SW,232,4.0,7.0,76,0.00,,,0.00,545,Wunderground v.1.15,2013-03-09 16:34:00,
2013-03-09 09:40:00,27.3,20.7,30.27,SW,233,4.0,7.0,76,0.00,,,0.00,193,Wunderground v.1.15,2013-03-09 16:40:00,
2013-03-09 09:46:00,27.7,20.8,30.27,SW,233,3.0,7.0,75,0.00,,,0.00,188,Wunderground v.1.15,2013-03-09 16:46:00,
2013-03-09 09:52:00,28.5,20.9,30.27,SW,233,1.0,7.0,73,0.00,,,0.00,225,Wunderground v.1.15,2013-03-09 16:52:00,
2013-03-09 09:58:00,29.4,21.5,30.27,SW,233,1.0,7.0,72,0.00,,,0.00,520,Wunderground v.1.15,2013-03-09 16:58:00,
2013-03-09 10:04:00,30.6,21.3,30.27,SW,233,1.0,7.0,68,0.00,,,0.00,250,Wunderground v.1.15,2013-03-09 17:04:00,
2013-03-09 10:10:00,31.4,21.3,30.27,SW,233,1.0,7.0,66,0.00,,,0.00,248,Wunderground v.1.15,2013-03-09 17:10:00,
2013-03-09 10:16:00,32.0,21.6,30.27,SW,233,1.0,7.0,65,0.00,,,0.00,471,Wunderground v.1.15,2013-03-09 17:16:00,
2013-03-09 10:24:00,33.2,20.8,30.27,NNE,15,3.0,7.0,60,0.00,,,0.00,533,Wunderground v.1.15,2013-03-09 17:24:00,
2013-03-09 10:30:00,33.9,20.7,30.27,NNE,15,3.0,7.0,58,0.00,,,0.00,552,Wunderground v.1.15,2013-03-09 17:30:00,
2013-03-09 10:36:00,34.6,20.5,30.27,NNE,15,4.0,8.0,56,0.00,,,0.00,566,Wunderground v.1.15,2013-03-09 17:36:00,
2013-03-09 10:42:00,35.0,20.4,30.27,NNE,15,2.0,7.0,55,0.00,,,0.00,578,Wunderground v.1.15,2013-03-09 17:42:00,
2013-03-09 10:50:00,35.6,21.0,30.27,NE,41,1.0,7.0,55,0.00,,,0.00,631,Wunderground v.1.15,2013-03-09 17:50:00,
2013-03-09 10:58:00,35.6,20.1,30.27,NNE,23,3.0,7.0,53,0.00,,,0.00,171,Wunderground v.1.15,2013-03-09 17:58:00,
2013-03-09 11:04:00,35.8,20.3,30.27,North,349,4.0,10.0,53,0.00,,,0.00,671,Wunderground v.1.15,2013-03-09 18:04:00,
2013-03-09 11:10:00,35.8,20.3,30.27,SW,219,3.0,10.0,53,0.00,,,0.00,118,Wunderground v.1.15,2013-03-09 18:10:00,
2013-03-09 11:18:00,34.7,19.3,30.27,SSW,207,4.0,10.0,53,0.00,,,0.00,680,Wunderground v.1.15,2013-03-09 18:18:00,
2013-03-09 11:26:00,34.7,19.7,30.27,SSW,193,7.0,10.0,54,0.00,,,0.00,654,Wunderground v.1.15,2013-03-09 18:26:00,
2013-03-09 11:32:00,35.0,20.0,30.27,SW,218,7.0,10.0,54,0.00,,,0.00,649,Wunderground v.1.15,2013-03-09 18:32:00,
2013-03-09 11:38:00,35.4,19.5,30.27,SW,221,5.0,10.0,52,0.00,,,0.00,656,Wunderground v.1.15,2013-03-09 18:38:00,
2013-03-09 11:44:00,36.3,19.9,30.27,SW,221,2.0,10.0,51,0.00,,,0.00,666,Wunderground v.1.15,2013-03-09 18:44:00,
2013-03-09 11:50:00,37.5,20.5,30.27,SW,224,0.0,10.0,50,0.00,,,0.00,705,Wunderground v.1.15,2013-03-09 18:50:00,
2013-03-09 12:00:00,36.4,20.0,30.27,SSW,199,4.0,10.0,51,0.00,,,0.00,388,Wunderground v.1.15,2013-03-09 19:00:00,
2013-03-09 12:06:00,35.6,18.8,30.27,SSW,199,6.0,10.0,50,0.00,,,0.00,698,Wunderground v.1.15,2013-03-09 19:06:00,
2013-03-09 12:12:00,36.3,20.3,30.27,SSW,204,4.0,10.0,52,0.00,,,0.00,701,Wunderground v.1.15,2013-03-09 19:12:00,
2013-03-09 12:18:00,36.4,20.0,30.27,SSW,206,4.0,10.0,51,0.00,,,0.00,705,Wunderground v.1.15,2013-03-09 19:18:00,
2013-03-09 12:24:00,36.7,18.8,30.27,SSW,207,4.0,10.0,48,0.00,,,0.00,698,Wunderground v.1.15,2013-03-09 19:24:00,
2013-03-09 12:30:00,37.5,20.1,30.27,SSW,207,2.0,2.0,49,0.00,,,0.00,693,Wunderground v.1.15,2013-03-09 19:30:00,
2013-03-09 12:36:00,38.2,19.7,30.27,SSW,206,2.0,10.0,47,0.00,,,0.00,689,Wunderground v.1.15,2013-03-09 19:36:00,
2013-03-09 12:42:00,38.5,19.0,30.26,North,350,3.0,10.0,45,0.00,,,0.00,684,Wunderground v.1.15,2013-03-09 19:42:00,
2013-03-09 12:48:00,38.3,19.3,30.26,NNE,21,4.0,10.0,46,0.00,,,0.00,680,Wunderground v.1.15,2013-03-09 19:48:00,
2013-03-09 12:54:00,38.3,19.8,30.26,NNE,19,7.0,10.0,47,0.00,,,0.00,684,Wunderground v.1.15,2013-03-09 19:54:00,
2013-03-09 13:00:00,38.3,19.3,30.25,NE,35,8.0,10.0,46,0.00,,,0.00,680,Wunderground v.1.15,2013-03-09 20:00:00,
2013-03-09 13:06:00,38.3,19.3,30.25,NNE,27,8.0,10.0,46,0.00,,,0.00,677,Wunderground v.1.15,2013-03-09 20:06:00,
2013-03-09 13:12:00,38.2,19.2,30.26,NE,37,9.0,10.0,46,0.00,,,0.00,668,Wunderground v.1.15,2013-03-09 20:12:00,
2013-03-09 13:18:00,38.5,19.5,30.26,NNE,16,9.0,10.0,46,0.00,,,0.00,673,Wunderground v.1.15,2013-03-09 20:18:00,
2013-03-09 13:24:00,38.9,19.3,30.26,North,354,7.0,10.0,45,0.00,,,0.00,670,Wunderground v.1.15,2013-03-09 20:24:00,
2013-03-09 13:30:00,39.3,20.2,30.25,NNE,15,6.0,10.0,46,0.00,,,0.00,666,Wunderground v.1.15,2013-03-09 20:30:00,
2013-03-09 13:36:00,39.6,20.0,30.26,North,358,8.0,11.0,45,0.00,,,0.00,659,Wunderground v.1.15,2013-03-09 20:36:00,
2013-03-09 13:42:00,39.5,19.9,30.26,NE,37,8.0,9.0,45,0.00,,,0.00,656,Wunderground v.1.15,2013-03-09 20:42:00,
2013-03-09 13:48:00,39.7,20.1,30.25,NNE,30,6.0,10.0,45,0.00,,,0.00,649,Wunderground v.1.15,2013-03-09 20:48:00,
2013-03-09 13:54:00,39.9,20.3,30.25,NNE,23,6.0,10.0,45,0.00,,,0.00,643,Wunderground v.1.15,2013-03-09 20:54:00,
2013-03-09 14:00:00,39.6,20.5,30.25,North,10,8.0,10.0,46,0.00,,,0.00,640,Wunderground v.1.15,2013-03-09 21:00:00,
2013-03-09 14:06:00,39.7,20.1,30.26,North,7,10.0,11.0,45,0.00,,,0.00,605,Wunderground v.1.15,2013-03-09 21:06:00,
2013-03-09 14:12:00,39.8,20.7,30.26,North,3,9.0,11.0,46,0.00,,,0.00,626,Wunderground v.1.15,2013-03-09 21:12:00,
2013-03-09 14:18:00,39.8,20.7,30.25,NNE,22,9.0,12.0,46,0.00,,,0.00,619,Wunderground v.1.15,2013-03-09 21:18:00,
2013-03-09 14:24:00,39.9,22.3,30.25,NNE,15,10.0,11.0,49,0.00,,,0.00,608,Wunderground v.1.15,2013-03-09 21:24:00,
2013-03-09 14:30:00,40.1,21.5,30.26,North,4,8.0,8.0,47,0.00,,,0.00,598,Wunderground v.1.15,2013-03-09 21:30:00,
2013-03-09 14:36:00,40.2,21.0,30.26,North,10,8.0,11.0,46,0.00,,,0.00,591,Wunderground v.1.15,2013-03-09 21:36:00,
2013-03-09 14:42:00,40.4,21.7,30.26,North,6,9.0,10.0,47,0.00,,,0.00,580,Wunderground v.1.15,2013-03-09 21:42:00,
2013-03-09 14:48:00,40.4,21.2,30.26,NNW,345,9.0,14.0,46,0.00,,,0.00,566,Wunderground v.1.15,2013-03-09 21:48:00,
2013-03-09 14:54:00,40.4,21.7,30.26,North,360,9.0,13.0,47,0.00,,,0.00,557,Wunderground v.1.15,2013-03-09 21:54:00,
2013-03-09 15:00:00,40.4,22.2,30.26,North,8,12.0,14.0,48,0.00,,,0.00,547,Wunderground v.1.15,2013-03-09 22:00:00,
2013-03-09 15:06:00,40.3,21.6,30.26,North,357,12.0,14.0,47,0.00,,,0.00,538,Wunderground v.1.15,2013-03-09 22:06:00,
2013-03-09 15:12:00,40.4,21.2,30.26,North,4,11.0,12.0,46,0.00,,,0.00,529,Wunderground v.1.15,2013-03-09 22:12:00,
2013-03-09 15:18:00,40.6,22.4,30.26,North,11,11.0,14.0,48,0.00,,,0.00,489,Wunderground v.1.15,2013-03-09 22:18:00,
2013-03-09 15:24:00,40.6,22.9,30.27,North,10,10.0,11.0,49,0.00,,,0.00,504,Wunderground v.1.15,2013-03-09 22:24:00,
2013-03-09 15:30:00,40.8,22.1,30.26,North,360,9.0,11.0,47,0.00,,,0.00,490,Wunderground v.1.15,2013-03-09 22:30:00,
2013-03-09 15:36:00,40.8,23.1,30.26,NNE,27,11.0,17.0,49,0.00,,,0.00,461,Wunderground v.1.15,2013-03-09 22:36:00,
2013-03-09 15:42:00,41.0,22.8,30.26,NNE,21,11.0,14.0,48,0.00,,,0.00,462,Wunderground v.1.15,2013-03-09 22:42:00,
2013-03-09 15:48:00,41.3,24.0,30.27,North,360,10.0,14.0,50,0.00,,,0.00,441,Wunderground v.1.15,2013-03-09 22:48:00,
2013-03-09 15:54:00,41.2,22.0,30.28,North,4,11.0,13.0,46,0.00,,,0.00,432,Wunderground v.1.15,2013-03-09 22:54:00,
2013-03-09 16:00:00,41.3,23.1,30.27,NNE,12,12.0,15.0,48,0.00,,,0.00,417,Wunderground v.1.15,2013-03-09 23:00:00,
2013-03-09 16:06:00,41.3,24.0,30.27,NNE,12,12.0,16.0,50,0.00,,,0.00,403,Wunderground v.1.15,2013-03-09 23:06:00,
2013-03-09 16:12:00,41.3,22.6,30.28,NNE,12,12.0,13.0,47,0.00,,,0.00,388,Wunderground v.1.15,2013-03-09 23:12:00,
2013-03-09 16:18:00,41.4,23.6,30.28,NNE,17,13.0,14.0,49,0.00,,,0.00,338,Wunderground v.1.15,2013-03-09 23:18:00,
2013-03-09 16:24:00,41.4,23.6,30.28,NNE,27,14.0,16.0,49,0.00,,,0.00,332,Wunderground v.1.15,2013-03-09 23:24:00,
2013-03-09 16:30:00,41.5,23.7,30.28,North,4,13.0,14.0,49,0.00,,,0.00,311,Wunderground v.1.15,2013-03-09 23:30:00,
2013-03-09 16:36:00,41.3,23.1,30.28,North,6,14.0,19.0,48,0.00,,,0.00,295,Wunderground v.1.15,2013-03-09 23:36:00,
2013-03-09 16:42:00,41.1,23.4,30.29,NNE,12,16.0,17.0,49,0.00,,,0.00,297,Wunderground v.1.15,2013-03-09 23:42:00,
2013-03-09 16:48:00,41.1,23.4,30.29,NNE,25,16.0,19.0,49,0.00,,,0.00,279,Wunderground v.1.15,2013-03-09 23:48:00,
2013-03-09 16:54:00,41.2,23.5,30.29,NNE,16,17.0,21.0,49,0.00,,,0.00,265,Wunderground v.1.15,2013-03-09 23:54:00,
2013-03-09 17:00:00,41.1,23.4,30.30,NNE,13,16.0,17.0,49,0.00,,,0.00,246,Wunderground v.1.15,2013-03-10 00:00:00,
2013-03-09 17:06:00,40.9,23.7,30.30,NNE,13,17.0,22.0,50,0.00,,,0.00,221,Wunderground v.1.15,2013-03-10 00:06:00,
2013-03-09 17:12:00,41.0,23.8,30.29,NNE,15,17.0,17.0,50,0.00,,,0.00,200,Wunderground v.1.15,2013-03-10 00:12:00,
2013-03-09 17:18:00,41.0,23.8,30.29,NNE,12,16.0,19.0,50,0.00,,,0.00,179,Wunderground v.1.15,2013-03-10 00:18:00,
2013-03-09 17:24:00,41.0,24.2,30.30,NNE,12,17.0,17.0,51,0.00,,,0.00,113,Wunderground v.1.15,2013-03-10 00:24:00,
2013-03-09 17:30:00,40.9,24.1,30.30,NNE,21,16.0,18.0,51,0.00,,,0.00,132,Wunderground v.1.15,2013-03-10 00:30:00,
2013-03-09 17:36:00,40.8,24.1,30.30,NNE,14,16.0,23.0,51,0.00,,,0.00,116,Wunderground v.1.15,2013-03-10 00:36:00,
2013-03-09 17:42:00,40.8,24.1,30.30,NNE,22,17.0,18.0,51,0.00,,,0.00,83,Wunderground v.1.15,2013-03-10 00:42:00,
2013-03-09 17:48:00,40.7,24.4,30.31,NNE,23,17.0,20.0,52,0.00,,,0.00,69,Wunderground v.1.15,2013-03-10 00:48:00,
2013-03-09 17:54:00,40.6,22.9,30.31,NNE,27,18.0,21.0,49,0.00,,,0.00,51,Wunderground v.1.15,2013-03-10 00:54:00,
2013-03-09 18:00:00,40.5,23.3,30.31,NNE,17,17.0,17.0,50,0.00,,,0.00,40,Wunderground v.1.15,2013-03-10 01:00:00,
2013-03-09 18:06:00,40.4,23.7,30.31,NNE,12,15.0,17.0,51,0.00,,,0.00,30,Wunderground v.1.15,2013-03-10 01:06:00,
2013-03-09 18:12:00,40.2,24.0,30.31,NNE,26,16.0,18.0,52,0.00,,,0.00,18,Wunderground v.1.15,2013-03-10 01:12:00,
2013-03-09 18:18:00,40.0,23.8,30.31,NNE,13,16.0,18.0,52,0.00,,,0.00,11,Wunderground v.1.15,2013-03-10 01:18:00,
2013-03-09 18:24:00,39.6,23.9,30.31,NNE,18,15.0,16.0,53,0.00,,,0.00,7,Wunderground v.1.15,2013-03-10 01:24:00,
2013-03-09 18:30:00,39.3,24.0,30.32,NNE,31,14.0,15.0,54,0.00,,,0.00,0,Wunderground v.1.15,2013-03-10 01:30:00,
2013-03-09 18:36:00,39.1,24.3,30.32,NNE,30,13.0,16.0,55,0.00,,,0.00,0,Wunderground v.1.15,2013-03-10 01:36:00,
2013-03-09 18:42:00,38.9,23.2,30.32,NNE,27,13.0,15.0,53,0.00,,,0.00,0,Wunderground v.1.15,2013-03-10 01:42:00,
2013-03-09 18:48:00,38.6,22.9,30.32,NE,35,12.0,15.0,53,0.00,,,0.00,0,Wunderground v.1.15,2013-03-10 01:48:00,
2013-03-09 18:54:00,38.1,22.9,30.33,NNE,30,10.0,11.0,54,0.00,,,0.00,0,Wunderground v.1.15,2013-03-10 01:54:00,
2013-03-09 19:00:00,37.7,23.4,30.33,NE,39,10.0,11.0,56,0.00,,,0.00,0,Wunderground v.1.15,2013-03-10 02:00:00,
2013-03-09 19:06:00,37.5,22.8,30.33,NE,40,11.0,13.0,55,0.00,,,0.00,0,Wunderground v.1.15,2013-03-10 02:06:00,
2013-03-09 19:12:00,37.6,22.9,30.33,NE,39,13.0,14.0,55,0.00,,,0.00,0,Wunderground v.1.15,2013-03-10 02:12:00,
2013-03-09 19:18:00,37.4,23.1,30.33,NNE,29,12.0,14.0,56,0.00,,,0.00,0,Wunderground v.1.15,2013-03-10 02:18:00,
2013-03-09 19:24:00,37.5,23.2,30.33,NNE,27,11.0,12.0,56,0.00,,,0.00,0,Wunderground v.1.15,2013-03-10 02:24:00,
2013-03-09 19:30:00,37.5,24.5,30.33,NNE,18,10.0,10.0,59,0.00,,,0.00,0,Wunderground v.1.15,2013-03-10 02:30:00,
2013-03-09 19:36:00,37.2,23.4,30.34,NNW,341,8.0,10.0,57,0.00,,,0.00,0,Wunderground v.1.15,2013-03-10 02:36:00,
2013-03-09 19:42:00,36.8,23.0,30.34,NW,308,7.0,13.0,57,0.00,,,0.00,0,Wunderground v.1.15,2013-03-10 02:42:00,
2013-03-09 19:48:00,36.3,22.9,30.35,NNW,331,7.0,13.0,58,0.00,,,0.00,0,Wunderground v.1.15,2013-03-10 02:48:00,
2013-03-09 19:54:00,35.7,22.8,30.35,NNW,345,6.0,10.0,59,0.00,,,0.00,0,Wunderground v.1.15,2013-03-10 02:54:00,
2013-03-09 20:00:00,35.3,22.8,30.35,NNW,341,3.0,14.0,60,0.00,,,0.00,0,Wunderground v.1.15,2013-03-10 03:00:00,
2013-03-09 20:06:00,35.1,23.0,30.35,NNW,341,3.0,14.0,61,0.00,,,0.00,0,Wunderground v.1.15,2013-03-10 03:06:00,
2013-03-09 20:12:00,34.9,24.3,30.36,NNW,342,2.0,3.0,65,0.00,,,0.00,0,Wunderground v.1.15,2013-03-10 03:12:00,
2013-03-09 20:18:00,34.2,23.3,30.36,NNW,342,1.0,14.0,64,0.00,,,0.00,0,Wunderground v.1.15,2013-03-10 03:18:00,
2013-03-09 20:24:00,34.0,23.5,30.36,NNW,342,0.0,14.0,65,0.00,,,0.00,0,Wunderground v.1.15,2013-03-10 03:24:00,
2013-03-09 20:30:00,33.9,24.1,30.36,NNW,342,0.0,14.0,67,0.00,,,0.00,0,Wunderground v.1.15,2013-03-10 03:30:00,
2013-03-09 20:36:00,33.7,24.6,30.36,NNW,342,0.0,14.0,69,0.00,,,0.00,0,Wunderground v.1.15,2013-03-10 03:36:00,
2013-03-09 20:42:00,33.3,25.2,30.36,SSW,196,1.0,14.0,72,0.00,,,0.00,0,Wunderground v.1.15,2013-03-10 03:42:00,
2013-03-09 20:48:00,33.3,24.9,30.36,SSW,195,4.0,14.0,71,0.00,,,0.00,0,Wunderground v.1.15,2013-03-10 03:48:00,
2013-03-09 20:54:00,32.6,23.6,30.36,SSW,200,7.0,14.0,69,0.00,,,0.00,0,Wunderground v.1.15,2013-03-10 03:54:00,
2013-03-09 21:00:00,34.0,23.5,30.37,SSW,201,5.0,5.0,65,0.00,,,0.00,0,Wunderground v.1.15,2013-03-10 04:00:00,
2013-03-09 21:06:00,34.0,23.8,30.38,SSW,204,4.0,14.0,66,0.00,,,0.00,0,Wunderground v.1.15,2013-03-10 04:06:00,
2013-03-09 21:12:00,33.9,23.4,30.38,SSW,204,3.0,14.0,65,0.00,,,0.00,0,Wunderground v.1.15,2013-03-10 04:12:00,
2013-03-09 21:18:00,33.9,23.0,30.38,SSW,204,0.0,14.0,64,0.00,,,0.00,0,Wunderground v.1.15,2013-03-10 04:18:00,
2013-03-09 21:24:00,32.6,23.9,30.39,SSW,204,2.0,14.0,70,0.00,,,0.00,0,Wunderground v.1.15,2013-03-10 04:24:00,
2013-03-09 21:30:00,30.5,22.9,30.39,SSW,197,6.0,14.0,73,0.00,,,0.00,0,Wunderground v.1.15,2013-03-10 04:30:00,
2013-03-09 21:40:00,29.5,23.2,30.39,SSE,166,6.0,14.0,77,0.00,,,0.00,0,Wunderground v.1.15,2013-03-10 04:40:00,
2013-03-09 21:46:00,29.8,23.5,30.39,SSE,166,5.0,14.0,77,0.00,,,0.00,0,Wunderground v.1.15,2013-03-10 04:46:00,
2013-03-09 22:00:00,30.5,23.2,30.39,SSW,197,4.0,4.0,74,0.00,,,0.00,0,Wunderground v.1.15,2013-03-10 05:00:00,
2013-03-09 22:02:00,30.6,23.3,30.39,SSW,197,3.0,14.0,74,0.00,,,0.00,0,Wunderground v.1.15,2013-03-10 05:02:00,
2013-03-09 22:08:00,30.7,23.7,30.38,SSW,197,1.0,14.0,75,0.00,,,0.00,0,Wunderground v.1.15,2013-03-10 05:08:00,
2013-03-09 22:14:00,30.9,22.9,30.39,SSW,197,0.0,14.0,72,0.00,,,0.00,0,Wunderground v.1.15,2013-03-10 05:14:00,
2013-03-09 22:16:00,30.9,22.9,30.39,SSW,197,0.0,14.0,72,0.00,,,0.00,0,Wunderground v.1.15,2013-03-10 05:16:00,
2013-03-09 22:22:00,30.8,24.1,30.39,SSW,197,1.0,14.0,76,0.00,,,0.00,0,Wunderground v.1.15,2013-03-10 05:22:00,
2013-03-09 22:28:00,30.7,24.0,30.38,SSW,197,2.0,14.0,76,0.00,,,0.00,0,Wunderground v.1.15,2013-03-10 05:28:00,
2013-03-09 22:34:00,30.4,23.4,30.39,SSW,197,4.0,14.0,75,0.00,,,0.00,0,Wunderground v.1.15,2013-03-10 05:34:00,
2013-03-09 22:40:00,30.1,23.4,30.39,SSW,197,3.0,3.0,76,0.00,,,0.00,0,Wunderground v.1.15,2013-03-10 05:40:00,
2013-03-09 22:46:00,29.2,22.9,30.40,SSW,204,3.0,14.0,77,0.00,,,0.00,0,Wunderground v.1.15,2013-03-10 05:46:00,
2013-03-09 22:52:00,28.6,22.6,30.40,SSW,204,3.0,14.0,78,0.00,,,0.00,0,Wunderground v.1.15,2013-03-10 05:52:00,
2013-03-09 23:00:00,28.1,22.4,30.40,SSW,204,2.0,2.0,79,0.00,,,0.00,0,Wunderground v.1.15,2013-03-10 06:00:00,
2013-03-09 23:06:00,28.0,22.6,30.39,SSW,204,1.0,14.0,80,0.00,,,0.00,0,Wunderground v.1.15,2013-03-10 06:06:00,
2013-03-09 23:12:00,27.9,22.2,30.40,SSW,204,0.0,14.0,79,0.00,,,0.00,0,Wunderground v.1.15,2013-03-10 06:12:00,
2013-03-09 23:18:00,27.8,22.4,30.39,SSW,204,2.0,14.0,80,0.00,,,0.00,0,Wunderground v.1.15,2013-03-10 06:18:00,
2013-03-09 23:24:00,28.1,22.7,30.40,SSW,204,3.0,14.0,80,0.00,,,0.00,0,Wunderground v.1.15,2013-03-10 06:24:00,
2013-03-09 23:30:00,28.2,23.1,30.40,SSW,204,3.0,3.0,81,0.00,,,0.00,0,Wunderground v.1.15,2013-03-10 06:30:00,
2013-03-09 23:36:00,28.3,23.5,30.40,SSE,168,3.0,14.0,82,0.00,,,0.00,0,Wunderground v.1.15,2013-03-10 06:36:00,
2013-03-09 23:42:00,27.8,22.4,30.39,SSE,168,4.0,14.0,80,0.00,,,0.00,0,Wunderground v.1.15,2013-03-10 06:42:00,
2013-03-09 23:48:00,28.1,22.1,30.40,SSE,168,5.0,14.0,78,0.00,,,0.00,0,Wunderground v.1.15,2013-03-10 06:48:00,
2013-03-09 23:54:00,28.6,22.6,30.40,SSE,162,5.0,14.0,78,0.00,,,0.00,0,Wunderground v.1.15,2013-03-10 06:54:00,